Location: Lane
(33.5226°N, 79.8788°W)
Time: 09:29:39
(UTC+00:00)

Altair - Pass Details

Date: 11 October 2022
Orbit: 1501 x 1682 km, 47.2° (Epoch: 30 November)

Event Time Altitude Azimuth Distance (km) Brightness Sun altitude
Rises 04:59:43 0° 182° (S) 4,638 - -63.4°
Reaches altitude 10° 05:03:52 10° 165° (SSE) 3,680 - -63.5°
Maximum altitude 05:09:54 19° 124° (ESE) 3,050 - -63.5°
Drops below altitude 10° 05:16:01 10° 83° (E) 3,773 - -63.4°
Exits shadow 05:19:47 - 69° (ENE) 4,662 10.2 -63.3°
Sets 05:20:18 0° 67° (ENE) 4,795 10.3 -63.3°
